Norfolk, NE

6:23 PM CST on February 06, 2016 (GMT -0600)
Stefan Memorial

Weather History for KOFK - March, 2014

Change the Weather History Date:

Wednesday, March 19, 2014

  Actual Average Record
Temperature  
Mean Temperature 39 °F 39 °F  
Max Temperature 52 °F 50 °F 82 °F (1921)
Min Temperature 25 °F 27 °F -10 °F (1923)
Degree Days  
Heating Degree Days 26 26  
Month to date heating degree days 608 570  
Since 1 July heating degree days 5958 5663  
Cooling Degree Days 0 0  
Month to date cooling degree days 0 0  
Year to date cooling degree days 0 0  
Moisture  
Dew Point 26 °F    
Average Humidity 59    
Maximum Humidity 85    
Minimum Humidity 32    
Precipitation  
Precipitation T in 0.06 in 1.16 in (1982)
Month to date precipitation 0.34 0.93  
Year to date precipitation 0.90 2.28  
Snow  
Snow 0.00 in 0.20 in - ()
Month to date snowfall 4.0 3.3  
Since 1 July snowfall 15.4 26.1  
Snow Depth T in    
Sea Level Pressure  
Sea Level Pressure 30.03 in    
Wind  
Wind Speed 11 mph (NW)    
Max Wind Speed 29 mph    
Max Gust Speed 37 mph    
Visibility 10 miles    
Events Rain    
T = Trace of Precipitation, MM = Missing Value Source: NWS Daily Summary

Daily Weather History Graph

Daily Weather History Graph

Search for Another Location

Airport or City:

Trip Planner

Search our weather history database for the weather conditions in past years. The results will help you decide how hot, cold, wet, or windy it might be!

Date:

Astronomy

Mar. 19, 2014 Rise Set
Actual Time 7:34 AM CDT 7:40 PM CDT
Civil Twilight 7:06 AM CDT 8:08 PM CDT
Nautical Twilight 6:34 AM CDT 8:41 PM CDT
Astronomical Twilight 6:01 AM CDT 9:14 PM CDT
Moon 11:04 PM CDT (3/19) 8:58 AM CDT (3/19)
Length of Visible Light 13h 01m
Length of Day
12h 06m
Waning Gibbous, 91% of the Moon is Illuminated
Mar 19
Waning Gibbous
Mar 23
Last Quarter
Mar 30
New
Apr 7
First Quarter
Apr 15
Full

Hourly Weather History & Observations

Time (CDT) Temp. Windchill Dew Point Humidity Pressure Visibility Wind Dir Wind Speed Gust Speed Precip Events Conditions
12:56 AM 30.9 °F 17.2 °F 27.0 °F 85% 29.93 in 10.0 mi NNW 25.3 mph 34.5 mph N/A   Overcast
1:21 AM 30.9 °F 18.1 °F 27.0 °F 85% 29.90 in 10.0 mi NNW 21.9 mph 29.9 mph N/A   Overcast
1:56 AM 30.9 °F 17.5 °F 26.1 °F 82% 29.94 in 10.0 mi NNW 24.2 mph - N/A   Overcast
2:56 AM 30.9 °F 18.7 °F 26.1 °F 82% 29.96 in 10.0 mi NNW 19.6 mph 28.8 mph N/A   Overcast
3:56 AM 30.9 °F 17.8 °F 26.1 °F 82% 29.99 in 10.0 mi NNW 23.0 mph 35.7 mph N/A   Overcast
4:26 AM 30.9 °F 18.1 °F 26.1 °F 82% 29.95 in 10.0 mi NNW 21.9 mph 32.2 mph N/A   Overcast
4:56 AM 30.9 °F 19.8 °F 25.0 °F 79% 30.01 in 10.0 mi NNW 16.1 mph - N/A   Mostly Cloudy
5:12 AM 28.9 °F 19.2 °F 24.1 °F 82% 29.97 in 10.0 mi NNW 11.5 mph - N/A   Scattered Clouds
5:56 AM 28.0 °F 17.5 °F 24.1 °F 85% 30.03 in 10.0 mi NW 12.7 mph - N/A   Clear
6:56 AM 28.0 °F 18.6 °F 24.1 °F 85% 30.04 in 10.0 mi WNW 10.4 mph - N/A   Clear
7:56 AM 26.1 °F 16.2 °F 21.9 °F 84% 30.07 in 10.0 mi WNW 10.4 mph - N/A   Clear
8:56 AM 30.0 °F 22.4 °F 25.0 °F 82% 30.07 in 10.0 mi WNW 8.1 mph - N/A   Clear
9:56 AM 34.0 °F 25.5 °F 27.0 °F 75% 30.09 in 9.0 mi West 11.5 mph - N/A   Clear
10:56 AM 37.0 °F 29.3 °F 30.0 °F 76% 30.09 in 8.0 mi WNW 11.5 mph - N/A   Clear
11:56 AM 41.0 °F 33.1 °F 28.0 °F 60% 30.10 in 10.0 mi NW 15.0 mph - N/A   Clear
12:56 PM 44.1 °F 37.7 °F 26.1 °F 49% 30.10 in 10.0 mi NW 12.7 mph 20.7 mph N/A   Clear
1:56 PM 48.0 °F - 21.9 °F 36% 30.08 in 10.0 mi NW 17.3 mph - N/A   Mostly Cloudy
2:56 PM 50.0 °F - 21.9 °F 33% 30.06 in 10.0 mi NW 15.0 mph 24.2 mph N/A   Clear
3:56 PM 51.1 °F - 23.0 °F 33% 30.04 in 10.0 mi WNW 12.7 mph 25.3 mph N/A   Mostly Cloudy
4:56 PM 50.0 °F - 23.0 °F 35% 30.03 in 10.0 mi WNW 15.0 mph 23.0 mph N/A   Mostly Cloudy
5:56 PM 48.0 °F - 25.0 °F 41% 30.04 in 10.0 mi NW 11.5 mph 26.5 mph 0.00 in Rain Light Rain
6:56 PM 46.9 °F - 28.9 °F 50% 30.05 in 10.0 mi NNW 8.1 mph - 0.00 in   Mostly Cloudy
7:56 PM 43.0 °F - 28.9 °F 58% 30.06 in 10.0 mi Calm Calm - N/A   Clear
8:56 PM 34.0 °F 29.8 °F 28.0 °F 79% 30.06 in 10.0 mi South 4.6 mph - N/A   Clear
9:56 PM 30.9 °F - 26.1 °F 82% 30.06 in 10.0 mi Calm Calm - N/A   Clear
10:56 PM 32.0 °F - 27.0 °F 82% 30.06 in 10.0 mi Calm Calm - N/A   Clear
11:56 PM 26.1 °F - 23.0 °F 88% 30.06 in 10.0 mi Calm Calm - N/A   Clear